TIANTONG-1 3

Last updated on Thu Oct 30 2025 00:02:51 GMT+0000 (Coordinated Universal Time)

1 47321U 21003A 25302.48728446 -.00000147 00000+0 00000+0 0 9999 2 47321 2.0116 326.7969 0006373 285.8616 42.3835 1.00270883 17648
UTC large
Height (km)
Speed (km/s)
/
Latitude / Longitude
Inclination (degrees)
Orbital Period (minutes)
Azimuth
Elevation
Range (km)
Doppler Factor

Next 0 passes for location: London (51.5072 / 0.1276)

Sorry there are no passes over London.